| time (UTC) | temp C | wind direction | speed KPH | gust KPH | rain 1hr cm | rain 24hr cm | rain mn cm | humidity % | barometer mb |
| 20260504194600 | 16 | 147 | 9.7 | 30.6 | 0.00 | 0.00 | 0.00 | 75 | 1009.8 |
| 20260504193059 | 16 | 185 | 12.9 | 25.7 | 0.00 | 0.00 | 0.00 | 73 | 1009.8 |
| 20260504191549 | 16 | 152 | 14.5 | 27.4 | 0.00 | 0.00 | 0.00 | 70 | 1010.0 |
| 20260504190113 | 16 | 126 | 12.9 | 29.0 | 0.00 | 0.00 | 0.00 | 70 | 1010.2 |
| 20260504184605 | 17 | 136 | 16.1 | 27.4 | 0.00 | 0.00 | 0.00 | 68 | 1010.3 |
| 20260504183053 | 17 | 184 | 14.5 | 29.0 | 0.00 | 0.00 | 0.00 | 68 | 1010.6 |
| 20260504181549 | 17 | 165 | 8.0 | 27.4 | 0.00 | 0.00 | 0.00 | 70 | 1010.6 |
| 20260504180055 | 17 | 119 | 11.3 | 25.7 | 0.00 | 0.00 | 0.00 | 70 | 1010.9 |
| 20260504174601 | 17 | 135 | 8.0 | 24.1 | 0.00 | 0.00 | 0.00 | 70 | 1011.2 |
| 20260504173057 | 17 | 175 | 12.9 | 27.4 | 0.00 | 0.00 | 0.00 | 69 | 1011.2 |
| 20260504171552 | 18 | 175 | 11.3 | 25.7 | 0.00 | 0.00 | 0.00 | 67 | 1011.3 |
| 20260504140106 | 17 | 195 | 6.4 | 24.1 | 0.00 | 0.00 | 0.00 | 61 | 1012.5 |
| 20260504110116 | 9 | 145 | 4.8 | 11.3 | 0.00 | 0.00 | 0.00 | 76 | 1013.7 |
| 20260504090117 | 9 | 177 | 3.2 | 14.5 | 0.00 | 0.00 | 0.00 | 70 | 1013.5 |
| 20260504081555 | 9 | 140 | 3.2 | 9.7 | 0.00 | 0.00 | 0.00 | 69 | 1013.5 |
| 20260504044601 | 9 | 196 | 1.6 | 9.7 | 0.00 | 0.00 | 0.00 | 58 | 1013.0 |
| 20260504043054 | 9 | 158 | 1.6 | 8.0 | 0.00 | 0.00 | 0.00 | 58 | 1012.8 |
| 20260504041556 | 9 | 0 | 1.6 | 9.7 | 0.00 | 0.00 | 0.00 | 57 | 1012.6 |
| 20260504040103 | 9 | 149 | 1.6 | 6.4 | 0.00 | 0.00 | 0.00 | 57 | 1012.6 |
| 20260504034603 | 9 | 219 | 1.6 | 6.4 | 0.00 | 0.00 | 0.00 | 56 | 1012.4 |
| 20260504033114 | 9 | 180 | 0.0 | 6.4 | 0.00 | 0.00 | 0.00 | 55 | 1012.4 |
| 20260504031559 | 9 | 134 | 0.0 | 3.2 | 0.00 | 0.00 | 0.00 | 54 | 1012.3 |
| 20260504030054 | 9 | 0 | 0.0 | 8.0 | 0.00 | 0.00 | 0.00 | 55 | 1012.2 |
| 20260504024551 | 9 | 142 | 0.0 | 8.0 | 0.00 | 0.00 | 0.00 | 55 | 1012.4 |
| 20260504023057 | 9 | 0 | 0.0 | 4.8 | 0.00 | 0.00 | 0.00 | 55 | 1012.3 |
| 20260504021556 | 8 | 165 | 0.0 | 3.2 | 0.00 | 0.00 | 0.00 | 57 | 1012.3 |
| 20260504020112 | 8 | 0 | 0.0 | 3.2 | 0.00 | 0.00 | 0.00 | 55 | 1012.3 |
| 20260504014603 | 9 | 0 | 0.0 | 3.2 | 0.00 | 0.00 | 0.00 | 55 | 1012.2 |
| 20260504013057 | 8 | 0 | 0.0 | 3.2 | 0.00 | 0.00 | 0.00 | 56 | 1012.1 |
| 20260504011559 | 8 | 0 | 0.0 | 3.2 | 0.00 | 0.00 | 0.00 | 57 | 1012.0 |
| 20260504010101 | 8 | 0 | 0.0 | 0.0 | 0.00 | 0.00 | 0.00 | 57 | 1011.6 |
| 20260504004604 | 10 | 0 | 0.0 | 0.0 | 0.00 | 0.00 | 0.00 | 56 | 1011.4 |
| 20260504003055 | 10 | 141 | 0.0 | 3.2 | 0.00 | 0.00 | 0.00 | 52 | 1011.3 |
| 20260504001612 | 11 | 0 | 0.0 | 1.6 | 0.00 | 0.00 | 0.00 | 49 | 1011.3 |
| 20260504000056 | 12 | 123 | 0.0 | 4.8 | 0.00 | 0.00 | 0.00 | 45 | 1011.0 |
| 20260503234556 | 13 | 0 | 0.0 | 4.8 | 0.00 | 0.00 | 0.00 | 44 | 1010.9 |
| 20260503233052 | 13 | 184 | 0.0 | 6.4 | 0.00 | 0.00 | 0.00 | 42 | 1010.8 |
| 20260503231556 | 14 | 234 | 4.8 | 16.1 | 0.00 | 0.00 | 0.00 | 37 | 1010.7 |
| 20260503230055 | 15 | 241 | 4.8 | 14.5 | 0.00 | 0.00 | 0.00 | 37 | 1010.7 |
| 20260503224549 | 15 | 226 | 6.4 | 20.9 | 0.00 | 0.00 | 0.00 | 36 | 1010.8 |
| 20260503223051 | 15 | 207 | 3.2 | 17.7 | 0.00 | 0.00 | 0.00 | 36 | 1010.5 |
| 20260503221556 | 15 | 226 | 12.9 | 25.7 | 0.00 | 0.00 | 0.00 | 35 | 1010.4 |
| 20260503220105 | 15 | 360 | 6.4 | 24.1 | 0.00 | 0.00 | 0.00 | 35 | 1010.2 |
| 20260503214549 | 15 | 273 | 9.7 | 25.7 | 0.00 | 0.00 | 0.00 | 34 | 1010.2 |
| 20260503213050 | 15 | 227 | 9.7 | 20.9 | 0.00 | 0.00 | 0.00 | 34 | 1010.1 |
| 20260503211605 | 15 | 233 | 11.3 | 24.1 | 0.00 | 0.00 | 0.00 | 34 | 1010.1 |
| 20260503210055 | 15 | 235 | 8.0 | 25.7 | 0.00 | 0.00 | 0.00 | 34 | 1010.1 |
| 20260503204555 | 15 | 238 | 11.3 | 24.1 | 0.00 | 0.00 | 0.00 | 36 | 1010.2 |
| 20260503203050 | 15 | 214 | 6.4 | 19.3 | 0.00 | 0.00 | 0.00 | 36 | 1009.9 |
| 20260503201551 | 15 | 248 | 12.9 | 25.7 | 0.00 | 0.00 | 0.00 | 36 | 1009.9 |
| 20260503200049 | 14 | 277 | 8.0 | 29.0 | 0.00 | 0.00 | 0.00 | 36 | 1009.9 |